Location: Newark
(7.0858°N, 171.3717°E)
Time: 20:57:28
(UTC+00:00)

Tiros 1 - Pass Details

Date: 30 November 2020
Orbit: 630 x 663 km, 48.4° (Epoch: 18 January)

Event Time Altitude Azimuth Distance (km) Brightness Sun altitude
Rises 12:50:14 0° 293° (WNW) 2,926 - -74.0°
Reaches altitude 10° 12:53:15 10° 273° (W) 2,012 - -73.6°
Maximum altitude 12:56:16 17° 232° (SW) 1,585 - -73.3°
Drops below altitude 10° 12:59:18 10° 191° (S) 2,004 - -72.9°
Sets 13:02:18 0° 171° (S) 2,909 - -72.6°
